Saint Bonnet de Bellac- Haute Vienne - France
Donnes mto: dimanche, 23/09/2012
Date Horaire Temp. E. Hum. E. P.atmo. Pluie Vent Direction Direction Ensoleilleme Solaire P. de rose Temp au vent Rafales
23/09/2012 00:00 15,3 C 88 % 1012,6 hPa 0,0 mm 1,1 km/h (1 Bft) N 360 0 min 0 W/m 13,3 C 15,3 C 1,1 km/h (1 Bft)
23/09/2012 00:10 15,3 C 89 % 1012,5 hPa 0,0 mm 3,6 km/h (1 Bft) E 90 0 min 0 W/m 13,5 C 15,3 C 3,6 km/h (1 Bft)
23/09/2012 00:20 15,3 C 89 % 1012,3 hPa 0,0 mm 2,5 km/h (1 Bft) E-NE 67 0 min 0 W/m 13,5 C 15,3 C 3,6 km/h (1 Bft)
23/09/2012 00:30 15,1 C 89 % 1012,3 hPa 0,0 mm 0,0 km/h (0 Bft) E 90 0 min 0 W/m 13,3 C 15,1 C 1,4 km/h (1 Bft)
23/09/2012 00:40 15,1 C 89 % 1012,3 hPa 0,0 mm 1,8 km/h (1 Bft) E-NE 67 0 min 0 W/m 13,3 C 15,1 C 4,0 km/h (1 Bft)
23/09/2012 00:50 15,1 C 90 % 1012,2 hPa 0,0 mm 1,8 km/h (1 Bft) N 360 0 min 0 W/m 13,5 C 15,1 C 1,8 km/h (1 Bft)
23/09/2012 01:00 14,9 C 89 % 1012,2 hPa 0,0 mm 0,0 km/h (0 Bft) E 90 0 min 0 W/m 13,1 C 14,9 C 0,0 km/h (0 Bft)
23/09/2012 01:10 14,8 C 90 % 1011,9 hPa 0,0 mm 0,0 km/h (0 Bft) E 90 0 min 0 W/m 13,2 C 14,8 C 3,6 km/h (1 Bft)
23/09/2012 01:20 14,8 C 90 % 1011,6 hPa 0,0 mm 2,9 km/h (1 Bft) E 90 0 min 0 W/m 13,2 C 14,8 C 2,9 km/h (1 Bft)
23/09/2012 01:30 14,8 C 90 % 1011,6 hPa 0,0 mm 3,6 km/h (1 Bft) NE 45 0 min 0 W/m 13,2 C 14,8 C 3,6 km/h (1 Bft)
23/09/2012 01:40 14,6 C 90 % 1011,6 hPa 0,0 mm 0,0 km/h (0 Bft) E 90 0 min 0 W/m 13,0 C 14,6 C 0,0 km/h (0 Bft)
23/09/2012 01:50 14,5 C 90 % 1011,6 hPa 0,0 mm 0,0 km/h (0 Bft) E 90 0 min 0 W/m 12,9 C 14,5 C 2,9 km/h (1 Bft)
23/09/2012 02:00 14,4 C 91 % 1011,6 hPa 0,0 mm 0,0 km/h (0 Bft) E 90 0 min 0 W/m 12,9 C 14,4 C 0,0 km/h (0 Bft)
23/09/2012 02:10 14,3 C 91 % 1011,5 hPa 0,0 mm 0,4 km/h (0 Bft) E-SE 112 0 min 0 W/m 12,8 C 14,3 C 4,0 km/h (1 Bft)
23/09/2012 02:20 14,3 C 91 % 1011,3 hPa 0,0 mm 3,2 km/h (1 Bft) E 90 0 min 0 W/m 12,8 C 14,3 C 7,6 km/h (2 Bft)
23/09/2012 02:30 14,3 C 91 % 1011,3 hPa 0,0 mm 1,4 km/h (1 Bft) E 90 0 min 0 W/m 12,8 C 14,3 C 4,7 km/h (1 Bft)
23/09/2012 02:40 14,3 C 91 % 1011,1 hPa 0,0 mm 0,0 km/h (0 Bft) E 90 0 min 0 W/m 12,8 C 14,3 C 0,0 km/h (0 Bft)
23/09/2012 02:50 14,3 C 91 % 1011,0 hPa 0,0 mm 2,5 km/h (1 Bft) E-SE 112 0 min 0 W/m 12,8 C 14,3 C 4,0 km/h (1 Bft)
23/09/2012 03:02 14,4 C 91 % 1010,9 hPa 0,0 mm 0,7 km/h (0 Bft) SE 135 0 min 0 W/m 12,9 C 14,4 C 3,2 km/h (1 Bft)
23/09/2012 03:10 14,5 C 91 % 1010,6 hPa 0,0 mm 4,7 km/h (1 Bft) E-SE 112 0 min 0 W/m 13,0 C 14,5 C 7,6 km/h (2 Bft)
23/09/2012 03:20 14,5 C 91 % 1010,4 hPa 0,0 mm 6,5 km/h (2 Bft) E-SE 112 0 min 0 W/m 13,0 C 14,5 C 6,5 km/h (2 Bft)
23/09/2012 03:30 14,5 C 92 % 1010,2 hPa 0,0 mm 5,0 km/h (1 Bft) E 90 0 min 0 W/m 13,2 C 14,5 C 7,6 km/h (2 Bft)
23/09/2012 03:40 14,5 C 92 % 1010,1 hPa 0,0 mm 1,8 km/h (1 Bft) E 90 0 min 0 W/m 13,2 C 14,5 C 3,6 km/h (1 Bft)
23/09/2012 03:50 14,4 C 92 % 1009,9 hPa 0,0 mm 1,1 km/h (1 Bft) E 90 0 min 0 W/m 13,1 C 14,4 C 4,0 km/h (1 Bft)
23/09/2012 04:00 14,4 C 92 % 1009,9 hPa 0,0 mm 0,0 km/h (0 Bft) E-SE 112 0 min 0 W/m 13,1 C 14,4 C 2,9 km/h (1 Bft)
23/09/2012 04:10 14,4 C 92 % 1009,7 hPa 0,0 mm 1,1 km/h (1 Bft) E-SE 112 0 min 0 W/m 13,1 C 14,4 C 1,1 km/h (1 Bft)
23/09/2012 04:20 14,3 C 92 % 1009,7 hPa 0,0 mm 2,2 km/h (1 Bft) SE 135 0 min 0 W/m 13,0 C 14,3 C 2,2 km/h (1 Bft)
23/09/2012 04:30 14,3 C 92 % 1009,5 hPa 0,0 mm 2,2 km/h (1 Bft) E-SE 112 0 min 0 W/m 13,0 C 14,3 C 2,9 km/h (1 Bft)
23/09/2012 04:40 14,3 C 92 % 1009,3 hPa 0,0 mm 0,7 km/h (0 Bft) E 90 0 min 0 W/m 13,0 C 14,3 C 0,7 km/h (0 Bft)
23/09/2012 04:50 14,3 C 92 % 1009,3 hPa 0,0 mm 1,1 km/h (1 Bft) E 90 0 min 0 W/m 13,0 C 14,3 C 1,1 km/h (1 Bft)
23/09/2012 05:00 14,3 C 92 % 1009,2 hPa 0,0 mm 0,0 km/h (0 Bft) E 90 0 min 0 W/m 13,0 C 14,3 C 1,4 km/h (1 Bft)
23/09/2012 05:10 14,3 C 92 % 1009,1 hPa 0,0 mm 0,7 km/h (0 Bft) E 90 0 min 0 W/m 13,0 C 14,3 C 3,2 km/h (1 Bft)
23/09/2012 05:20 14,3 C 92 % 1009,1 hPa 0,0 mm 1,4 km/h (1 Bft) E-SE 112 0 min 0 W/m 13,0 C 14,3 C 4,3 km/h (1 Bft)
23/09/2012 05:30 14,3 C 92 % 1009,0 hPa 0,0 mm 4,0 km/h (1 Bft) E-SE 112 0 min 0 W/m 13,0 C 14,3 C 7,6 km/h (2 Bft)
23/09/2012 05:40 14,4 C 92 % 1008,9 hPa 0,0 mm 2,5 km/h (1 Bft) E-NE 67 0 min 0 W/m 13,1 C 14,4 C 2,5 km/h (1 Bft)
23/09/2012 05:50 14,4 C 92 % 1008,6 hPa 0,0 mm 2,5 km/h (1 Bft) E-SE 112 0 min 0 W/m 13,1 C 14,4 C 4,3 km/h (1 Bft)
23/09/2012 06:00 14,4 C 93 % 1008,6 hPa 0,0 mm 0,4 km/h (0 Bft) E-SE 112 0 min 0 W/m 13,3 C 14,4 C 3,6 km/h (1 Bft)
23/09/2012 06:10 14,5 C 93 % 1008,5 hPa 0,0 mm 5,0 km/h (1 Bft) E-SE 112 0 min 0 W/m 13,4 C 14,5 C 9,7 km/h (2 Bft)
23/09/2012 06:20 14,6 C 93 % 1008,4 hPa 0,0 mm 3,6 km/h (1 Bft) E 90 0 min 0 W/m 13,5 C 14,6 C 4,7 km/h (1 Bft)
23/09/2012 06:30 14,6 C 93 % 1008,4 hPa 0,0 mm 3,6 km/h (1 Bft) E-SE 112 0 min 0 W/m 13,5 C 14,6 C 3,6 km/h (1 Bft)
23/09/2012 06:40 14,7 C 93 % 1008,3 hPa 0,0 mm 3,6 km/h (1 Bft) E 90 0 min 0 W/m 13,6 C 14,7 C 7,6 km/h (2 Bft)
23/09/2012 06:50 14,8 C 93 % 1008,2 hPa 0,0 mm 2,5 km/h (1 Bft) E 90 0 min 0 W/m 13,7 C 14,8 C 4,3 km/h (1 Bft)
23/09/2012 07:00 14,8 C 93 % 1008,2 hPa 0,0 mm 5,4 km/h (2 Bft) E-SE 112 0 min 0 W/m 13,7 C 14,8 C 5,4 km/h (2 Bft)
23/09/2012 07:10 14,9 C 93 % 1008,0 hPa 0,0 mm 2,9 km/h (1 Bft) E 90 0 min 0 W/m 13,8 C 14,9 C 2,9 km/h (1 Bft)
23/09/2012 07:20 15,0 C 93 % 1008,0 hPa 0,0 mm 1,4 km/h (1 Bft) SE 135 0 min 0 W/m 13,9 C 15,0 C 4,0 km/h (1 Bft)
23/09/2012 07:30 15,2 C 93 % 1007,9 hPa 0,0 mm 1,1 km/h (1 Bft) SE 135 0 min 0 W/m 14,1 C 15,2 C 4,0 km/h (1 Bft)
23/09/2012 07:40 15,4 C 93 % 1007,9 hPa 0,0 mm 0,0 km/h (0 Bft) SE 135 0 min 0 W/m 14,3 C 15,4 C 0,0 km/h (0 Bft)
23/09/2012 07:50 15,4 C 92 % 1008,0 hPa 0,0 mm 0,7 km/h (0 Bft) E 90 0 min 0 W/m 14,1 C 15,4 C 3,2 km/h (1 Bft)
23/09/2012 08:00 15,3 C 92 % 1008,0 hPa 0,0 mm 0,0 km/h (0 Bft) E-SE 112 0 min 0 W/m 14,0 C 15,3 C 0,0 km/h (0 Bft)
23/09/2012 08:10 15,5 C 93 % 1008,0 hPa 0,0 mm 1,8 km/h (1 Bft) SE 135 0 min 0 W/m 14,4 C 15,5 C 3,2 km/h (1 Bft)
23/09/2012 08:20 16,2 C 93 % 1007,9 hPa 0,0 mm 2,9 km/h (1 Bft) SE 135 0 min 0 W/m 15,1 C 16,2 C 6,8 km/h (2 Bft)
23/09/2012 08:30 17,0 C 91 % 1007,8 hPa 0,0 mm 4,7 km/h (1 Bft) S-SE 157 0 min 0 W/m 15,5 C 17,0 C 9,7 km/h (2 Bft)
23/09/2012 08:40 17,5 C 88 % 1007,7 hPa 0,0 mm 4,0 km/h (1 Bft) S-SE 157 0 min 0 W/m 15,5 C 17,5 C 4,3 km/h (1 Bft)
23/09/2012 08:50 18,0 C 85 % 1007,7 hPa 0,0 mm 6,5 km/h (2 Bft) S-SE 157 0 min 0 W/m 15,4 C 18,0 C 10,8 km/h (2 Bft)
23/09/2012 09:00 18,4 C 83 % 1007,7 hPa 0,0 mm 2,2 km/h (1 Bft) S-SE 157 0 min 0 W/m 15,5 C 18,4 C 6,8 km/h (2 Bft)
23/09/2012 09:10 18,9 C 82 % 1007,6 hPa 0,0 mm 1,8 km/h (1 Bft) S-SE 157 0 min 0 W/m 15,8 C 18,9 C 4,3 km/h (1 Bft)
23/09/2012 09:20 19,2 C 80 % 1007,6 hPa 0,0 mm 2,2 km/h (1 Bft) S-SE 157 0 min 0 W/m 15,7 C 19,2 C 2,2 km/h (1 Bft)
23/09/2012 09:30 19,5 C 78 % 1007,6 hPa 0,0 mm 11,2 km/h (2 Bft) SE 135 0 min 0 W/m 15,6 C 19,5 C 18,4 km/h (3 Bft)
23/09/2012 09:40 19,9 C 76 % 1007,5 hPa 0,0 mm 8,6 km/h (2 Bft) S-SE 157 0 min 0 W/m 15,5 C 19,9 C 8,6 km/h (2 Bft)
23/09/2012 09:50 20,6 C 74 % 1007,5 hPa 0,0 mm 8,3 km/h (2 Bft) S 180 0 min 0 W/m 15,8 C 20,6 C 13,0 km/h (3 Bft)
23/09/2012 10:00 20,9 C 73 % 1007,4 hPa 0,0 mm 11,9 km/h (2 Bft) S-SE 157 0 min 0 W/m 15,9 C 20,9 C 13,0 km/h (3 Bft)
23/09/2012 10:10 21,1 C 71 % 1007,2 hPa 0,0 mm 12,6 km/h (3 Bft) S-SO 202 0 min 0 W/m 15,6 C 21,1 C 12,6 km/h (3 Bft)
23/09/2012 10:20 21,8 C 69 % 1007,3 hPa 0,0 mm 10,8 km/h (2 Bft) S-SO 202 0 min 0 W/m 15,9 C 21,8 C 15,8 km/h (3 Bft)
23/09/2012 10:30 22,2 C 68 % 1007,3 hPa 0,0 mm 8,6 km/h (2 Bft) S-SE 157 0 min 0 W/m 16,0 C 22,2 C 16,6 km/h (3 Bft)
23/09/2012 10:40 22,8 C 66 % 1007,2 hPa 0,0 mm 10,8 km/h (2 Bft) SE 135 0 min 0 W/m 16,1 C 22,8 C 22,0 km/h (4 Bft)
23/09/2012 10:50 22,8 C 65 % 1007,1 hPa 0,0 mm 12,6 km/h (3 Bft) S-SO 202 0 min 0 W/m 15,9 C 22,8 C 12,6 km/h (3 Bft)
23/09/2012 11:00 22,8 C 65 % 1007,1 hPa 0,0 mm 18,4 km/h (3 Bft) S 180 0 min 0 W/m 15,9 C 22,8 C 28,8 km/h (5 Bft)
23/09/2012 11:10 22,9 C 64 % 1007,0 hPa 0,0 mm 10,8 km/h (2 Bft) S 180 0 min 0 W/m 15,7 C 22,9 C 22,0 km/h (4 Bft)
23/09/2012 11:20 23,2 C 64 % 1006,8 hPa 0,0 mm 12,2 km/h (2 Bft) SO 225 0 min 0 W/m 16,0 C 23,2 C 12,6 km/h (3 Bft)
23/09/2012 11:30 23,2 C 63 % 1006,7 hPa 0,0 mm 14,4 km/h (3 Bft) S 180 0 min 0 W/m 15,8 C 23,2 C 17,3 km/h (3 Bft)
23/09/2012 11:40 23,3 C 63 % 1006,7 hPa 0,0 mm 5,0 km/h (1 Bft) S-SE 157 0 min 0 W/m 15,9 C 23,3 C 7,9 km/h (2 Bft)
23/09/2012 11:50 23,3 C 63 % 1006,5 hPa 0,0 mm 5,0 km/h (1 Bft) N 360 0 min 0 W/m 15,9 C 23,3 C 5,0 km/h (1 Bft)
23/09/2012 12:00 23,4 C 63 % 1006,5 hPa 0,0 mm 9,0 km/h (2 Bft) S-SE 157 0 min 0 W/m 15,9 C 23,4 C 22,0 km/h (4 Bft)
23/09/2012 12:10 23,4 C 62 % 1006,3 hPa 0,0 mm 8,3 km/h (2 Bft) S-SE 157 0 min 0 W/m 15,7 C 23,4 C 14,0 km/h (3 Bft)
23/09/2012 12:20 23,5 C 62 % 1006,2 hPa 0,0 mm 6,1 km/h (2 Bft) S-SO 202 0 min 0 W/m 15,8 C 23,5 C 8,6 km/h (2 Bft)
23/09/2012 12:30 23,9 C 62 % 1006,2 hPa 0,0 mm 7,9 km/h (2 Bft) SO 225 0 min 0 W/m 16,2 C 23,9 C 10,1 km/h (2 Bft)
23/09/2012 12:40 24,6 C 60 % 1006,3 hPa 0,0 mm 9,7 km/h (2 Bft) S-SO 202 0 min 0 W/m 16,3 C 24,6 C 14,0 km/h (3 Bft)
23/09/2012 12:50 25,6 C 57 % 1006,2 hPa 0,0 mm 11,5 km/h (2 Bft) S 180 0 min 0 W/m 16,4 C 25,6 C 15,1 km/h (3 Bft)
23/09/2012 13:00 26,3 C 57 % 1006,0 hPa 0,0 mm 9,7 km/h (2 Bft) SE 135 0 min 0 W/m 17,1 C 26,3 C 10,8 km/h (2 Bft)
23/09/2012 13:10 26,6 C 54 % 1006,0 hPa 0,0 mm 8,3 km/h (2 Bft) SE 135 0 min 0 W/m 16,5 C 26,6 C 11,5 km/h (2 Bft)
23/09/2012 13:20 26,9 C 54 % 1006,0 hPa 0,0 mm 9,4 km/h (2 Bft) E-SE 112 0 min 0 W/m 16,8 C 26,9 C 18,7 km/h (3 Bft)
23/09/2012 13:30 26,8 C 53 % 1005,9 hPa 0,0 mm 13,3 km/h (3 Bft) S-SE 157 0 min 0 W/m 16,4 C 26,8 C 16,9 km/h (3 Bft)
23/09/2012 13:40 26,6 C 53 % 1005,9 hPa 0,0 mm 11,5 km/h (2 Bft) S 180 0 min 0 W/m 16,2 C 26,6 C 15,1 km/h (3 Bft)
23/09/2012 13:50 27,1 C 54 % 1005,8 hPa 0,0 mm 12,6 km/h (3 Bft) SE 135 0 min 0 W/m 17,0 C 27,1 C 18,4 km/h (3 Bft)
23/09/2012 14:00 27,6 C 52 % 1005,8 hPa 0,0 mm 3,2 km/h (1 Bft) S-SE 157 0 min 0 W/m 16,8 C 27,6 C 8,6 km/h (2 Bft)
23/09/2012 14:10 27,7 C 52 % 1005,5 hPa 0,0 mm 5,8 km/h (2 Bft) S 180 0 min 0 W/m 16,9 C 27,7 C 6,5 km/h (2 Bft)
23/09/2012 14:20 28,2 C 51 % 1005,3 hPa 0,0 mm 10,8 km/h (2 Bft) S-SE 157 0 min 0 W/m 17,1 C 28,2 C 15,5 km/h (3 Bft)
23/09/2012 14:30 28,6 C 48 % 1005,2 hPa 0,0 mm 14,0 km/h (3 Bft) SO 225 0 min 0 W/m 16,5 C 28,6 C 14,4 km/h (3 Bft)
23/09/2012 14:40 29,1 C 48 % 1005,0 hPa 0,0 mm 7,9 km/h (2 Bft) S-SE 157 0 min 0 W/m 16,9 C 29,1 C 11,9 km/h (2 Bft)
23/09/2012 14:50 29,3 C 48 % 1004,7 hPa 0,0 mm 13,3 km/h (3 Bft) S-SO 202 0 min 0 W/m 17,1 C 29,3 C 23,0 km/h (4 Bft)
23/09/2012 15:00 29,4 C 46 % 1004,6 hPa 0,0 mm 12,6 km/h (3 Bft) S-SO 202 0 min 0 W/m 16,5 C 29,4 C 12,6 km/h (3 Bft)
23/09/2012 15:10 29,3 C 46 % 1004,7 hPa 0,0 mm 15,8 km/h (3 Bft) SO 225 0 min 0 W/m 16,5 C 29,3 C 25,9 km/h (4 Bft)
23/09/2012 15:20 28,8 C 46 % 1004,6 hPa 0,0 mm 10,1 km/h (2 Bft) SO 225 0 min 0 W/m 16,0 C 28,8 C 12,6 km/h (3 Bft)
23/09/2012 15:30 28,7 C 47 % 1004,4 hPa 0,0 mm 11,9 km/h (2 Bft) S-SO 202 0 min 0 W/m 16,3 C 28,7 C 19,4 km/h (3 Bft)
23/09/2012 15:40 28,4 C 47 % 1004,4 hPa 0,0 mm 15,5 km/h (3 Bft) S-SE 157 0 min 0 W/m 16,0 C 28,4 C 15,5 km/h (3 Bft)
23/09/2012 15:50 28,3 C 48 % 1004,1 hPa 0,0 mm 13,0 km/h (3 Bft) S-SO 202 0 min 0 W/m 16,2 C 28,3 C 13,0 km/h (3 Bft)
23/09/2012 16:00 28,3 C 47 % 1004,0 hPa 0,0 mm 10,4 km/h (2 Bft) S-SO 202 0 min 0 W/m 15,9 C 28,3 C 15,8 km/h (3 Bft)
23/09/2012 16:10 28,1 C 47 % 1003,9 hPa 0,0 mm 10,4 km/h (2 Bft) S-SO 202 0 min 0 W/m 15,7 C 28,1 C 12,2 km/h (2 Bft)
23/09/2012 16:20 27,9 C 48 % 1003,7 hPa 0,0 mm 8,3 km/h (2 Bft) S-SO 202 0 min 0 W/m 15,9 C 27,9 C 15,1 km/h (3 Bft)
23/09/2012 16:30 28,3 C 49 % 1003,5 hPa 0,0 mm 8,3 km/h (2 Bft) SO 225 0 min 0 W/m 16,5 C 28,3 C 14,8 km/h (3 Bft)
23/09/2012 16:40 28,4 C 48 % 1003,3 hPa 0,0 mm 11,5 km/h (2 Bft) S 180 0 min 0 W/m 16,3 C 28,4 C 15,8 km/h (3 Bft)
23/09/2012 16:50 28,8 C 47 % 1003,1 hPa 0,0 mm 11,5 km/h (2 Bft) SO 225 0 min 0 W/m 16,3 C 28,8 C 14,8 km/h (3 Bft)
23/09/2012 17:00 29,1 C 46 % 1003,0 hPa 0,0 mm 12,6 km/h (3 Bft) S-SO 202 0 min 0 W/m 16,3 C 29,1 C 16,2 km/h (3 Bft)
23/09/2012 17:10 29,3 C 43 % 1002,9 hPa 0,0 mm 14,4 km/h (3 Bft) S-SO 202 0 min 0 W/m 15,4 C 29,3 C 16,6 km/h (3 Bft)
23/09/2012 17:20 28,8 C 45 % 1002,9 hPa 0,0 mm 8,6 km/h (2 Bft) S-SE 157 0 min 0 W/m 15,7 C 28,8 C 16,2 km/h (3 Bft)
23/09/2012 17:30 28,4 C 47 % 1002,8 hPa 0,0 mm 8,3 km/h (2 Bft) S-SO 202 0 min 0 W/m 16,0 C 28,4 C 17,6 km/h (3 Bft)
23/09/2012 17:40 27,9 C 47 % 1002,6 hPa 0,0 mm 10,4 km/h (2 Bft) SO 225 0 min 0 W/m 15,5 C 27,9 C 18,0 km/h (3 Bft)
23/09/2012 17:50 27,6 C 48 % 1002,8 hPa 0,0 mm 13,3 km/h (3 Bft) SO 225 0 min 0 W/m 15,6 C 27,6 C 20,9 km/h (4 Bft)
23/09/2012 18:00 27,5 C 49 % 1002,8 hPa 0,0 mm 7,9 km/h (2 Bft) S-SO 202 0 min 0 W/m 15,8 C 27,5 C 11,9 km/h (2 Bft)
23/09/2012 18:10 27,3 C 49 % 1002,6 hPa 0,0 mm 5,8 km/h (2 Bft) S-SO 202 0 min 0 W/m 15,6 C 27,3 C 10,1 km/h (2 Bft)
23/09/2012 18:20 27,4 C 49 % 1002,8 hPa 0,0 mm 9,4 km/h (2 Bft) S-SO 202 0 min 0 W/m 15,7 C 27,4 C 11,2 km/h (2 Bft)
23/09/2012 18:30 27,1 C 49 % 1002,3 hPa 0,0 mm 8,6 km/h (2 Bft) S-SE 157 0 min 0 W/m 15,4 C 27,1 C 10,8 km/h (2 Bft)
23/09/2012 18:40 26,9 C 49 % 1002,3 hPa 0,0 mm 8,3 km/h (2 Bft) S-SO 202 0 min 0 W/m 15,3 C 26,9 C 12,6 km/h (3 Bft)
23/09/2012 18:50 26,6 C 49 % 1002,3 hPa 0,0 mm 13,7 km/h (3 Bft) S 180 0 min 0 W/m 15,0 C 26,6 C 16,2 km/h (3 Bft)
23/09/2012 19:00 26,4 C 50 % 1002,3 hPa 0,0 mm 10,8 km/h (2 Bft) S-SO 202 0 min 0 W/m 15,1 C 26,4 C 12,6 km/h (3 Bft)
23/09/2012 19:10 26,1 C 51 % 1002,1 hPa 0,0 mm 5,4 km/h (2 Bft) S 180 0 min 0 W/m 15,2 C 26,1 C 6,1 km/h (2 Bft)
23/09/2012 19:20 25,8 C 51 % 1002,0 hPa 0,0 mm 6,8 km/h (2 Bft) S 180 0 min 0 W/m 14,9 C 25,8 C 12,2 km/h (2 Bft)
23/09/2012 19:30 25,4 C 53 % 1002,0 hPa 0,0 mm 4,0 km/h (1 Bft) S-SO 202 0 min 0 W/m 15,1 C 25,4 C 8,3 km/h (2 Bft)
23/09/2012 19:40 25,2 C 54 % 1001,9 hPa 0,0 mm 3,6 km/h (1 Bft) S 180 0 min 0 W/m 15,2 C 25,2 C 7,9 km/h (2 Bft)
23/09/2012 19:50 24,8 C 54 % 1001,6 hPa 0,0 mm 9,7 km/h (2 Bft) S 180 0 min 0 W/m 14,8 C 24,8 C 11,2 km/h (2 Bft)
23/09/2012 20:00 24,7 C 55 % 1001,4 hPa 0,0 mm 4,3 km/h (1 Bft) S 180 0 min 0 W/m 15,0 C 24,7 C 9,4 km/h (2 Bft)
23/09/2012 20:10 24,5 C 55 % 1001,3 hPa 0,0 mm 6,1 km/h (2 Bft) S 180 0 min 0 W/m 14,9 C 24,5 C 11,9 km/h (2 Bft)
23/09/2012 20:20 24,3 C 56 % 1001,3 hPa 0,0 mm 9,7 km/h (2 Bft) S 180 0 min 0 W/m 14,9 C 24,3 C 13,0 km/h (3 Bft)
23/09/2012 20:30 24,2 C 56 % 1001,0 hPa 0,0 mm 18,0 km/h (3 Bft) S-SE 157 0 min 0 W/m 14,9 C 24,2 C 18,0 km/h (3 Bft)
23/09/2012 20:40 24,1 C 57 % 1000,9 hPa 0,0 mm 11,9 km/h (2 Bft) S-SE 157 0 min 0 W/m 15,0 C 24,1 C 13,7 km/h (3 Bft)
23/09/2012 20:50 23,9 C 57 % 1001,1 hPa 0,0 mm 10,4 km/h (2 Bft) S 180 0 min 0 W/m 14,9 C 23,9 C 15,5 km/h (3 Bft)
23/09/2012 21:00 23,8 C 58 % 1001,1 hPa 0,0 mm 7,9 km/h (2 Bft) S-SE 157 0 min 0 W/m 15,0 C 23,8 C 13,0 km/h (3 Bft)
23/09/2012 21:10 23,5 C 59 % 1001,7 hPa 0,0 mm 9,0 km/h (2 Bft) SO 225 0 min 0 W/m 15,0 C 23,5 C 11,5 km/h (2 Bft)
23/09/2012 21:20 23,4 C 59 % 1002,4 hPa 0,0 mm 10,4 km/h (2 Bft) S-SO 202 0 min 0 W/m 14,9 C 23,4 C 11,5 km/h (2 Bft)
23/09/2012 21:30 23,2 C 62 % 1002,8 hPa 0,0 mm 10,4 km/h (2 Bft) S-SO 202 0 min 0 W/m 15,5 C 23,2 C 10,8 km/h (2 Bft)
23/09/2012 21:40 20,3 C 73 % 1004,7 hPa 0,0 mm 19,4 km/h (3 Bft) SO 225 0 min 0 W/m 15,3 C 20,3 C 34,2 km/h (5 Bft)
23/09/2012 21:50 17,1 C 82 % 1004,8 hPa 0,0 mm 15,5 km/h (3 Bft) SO 225 0 min 0 W/m 14,0 C 17,1 C 27,0 km/h (5 Bft)
23/09/2012 22:00 16,2 C 86 % 1004,5 hPa 0,0 mm 18,4 km/h (3 Bft) S 180 0 min 0 W/m 13,9 C 16,2 C 22,0 km/h (4 Bft)
23/09/2012 22:10 15,9 C 87 % 1004,1 hPa 0,0 mm 13,0 km/h (3 Bft) S 180 0 min 0 W/m 13,7 C 15,9 C 20,5 km/h (4 Bft)
23/09/2012 22:20 15,8 C 88 % 1003,6 hPa 0,0 mm 9,0 km/h (2 Bft) S-SO 202 0 min 0 W/m 13,8 C 15,8 C 16,2 km/h (3 Bft)
23/09/2012 22:30 16,0 C 87 % 1002,4 hPa 0,0 mm 5,4 km/h (2 Bft) SE 135 0 min 0 W/m 13,8 C 16,0 C 5,4 km/h (2 Bft)
23/09/2012 22:40 16,4 C 89 % 1001,7 hPa 0,0 mm 10,1 km/h (2 Bft) S 180 0 min 0 W/m 14,6 C 16,4 C 11,5 km/h (2 Bft)
23/09/2012 22:50 16,8 C 89 % 1001,5 hPa 0,0 mm 7,6 km/h (2 Bft) S 180 0 min 0 W/m 15,0 C 16,8 C 9,7 km/h (2 Bft)
23/09/2012 23:00 16,8 C 89 % 1001,3 hPa 0,0 mm 3,2 km/h (1 Bft) S-SE 157 0 min 0 W/m 15,0 C 16,8 C 7,6 km/h (2 Bft)
23/09/2012 23:10 16,9 C 89 % 1001,0 hPa 0,0 mm 5,4 km/h (2 Bft) S-SE 157 0 min 0 W/m 15,1 C 16,9 C 6,8 km/h (2 Bft)
23/09/2012 23:20 16,9 C 89 % 1000,9 hPa 0,0 mm 2,5 km/h (1 Bft) SE 135 0 min 0 W/m 15,1 C 16,9 C 3,6 km/h (1 Bft)
23/09/2012 23:30 16,9 C 89 % 1000,7 hPa 0,0 mm 1,8 km/h (1 Bft) SE 135 0 min 0 W/m 15,1 C 16,9 C 2,9 km/h (1 Bft)
23/09/2012 23:40 17,0 C 89 % 1000,6 hPa 0,0 mm 4,7 km/h (1 Bft) S-SE 157 0 min 0 W/m 15,2 C 17,0 C 4,7 km/h (1 Bft)
23/09/2012 23:50 17,2 C 89 % 1000,3 hPa 0,0 mm 7,9 km/h (2 Bft) S 180 0 min 0 W/m 15,4 C 17,2 C 8,6 km/h (2 Bft)
_ Min-Heure 05:30 17:10 23:50 - 08:00 - - - - 02:50 05:30 08:00
Minimum _ 14,3 C 43 % 1000,3 hPa - 0,0 km/h (0 Bft) - - - - 12,8 C 14,3 C 0,0 km/h (0 Bft)
_ Max-Heure 15:00 08:20 00:00 23:50 21:40 - - 23:50 23:50 14:50 15:00 21:40
Maximum _ 29,4 C 93 % 1012,6 hPa 0,0 mm 19,4 km/h
SO (3 Bft)
- - 0 min 0 W/m 17,1 C 29,4 C 34,2 km/h
SO (5 Bft)
Moyenne _ 20,7 C 72 % 1006,3 hPa #0,0 mm 6,8 km/h (2 Bft) S-SE - #0 min. 0 W/m 14,8 C 20,7 C 10,0 km/h (2 Bft)
Saint Bonnet de Bellac- Haute Vienne - France